| time (UTC) | temp C | wind direction | speed KPH | gust KPH | rain 1hr cm | rain 24hr cm | rain mn cm | humidity % | barometer mb |
| 20260504050703 | 7 | 245 | 1.6 | 3.2 | 0.00 | 0.00 | 0.00 | 57 | 1012.5 |
| 20260504050200 | 7 | 235 | 0.0 | 1.6 | 0.00 | 0.00 | 0.00 | 57 | 1012.6 |
| 20260504045658 | 6 | 256 | 3.2 | 3.2 | 0.00 | 0.00 | 0.00 | 58 | 1012.8 |
| 20260504045157 | 6 | 239 | 0.0 | 0.0 | 0.00 | 0.00 | 0.00 | 58 | 1012.5 |
| 20260504044655 | 7 | 213 | 0.0 | 0.0 | 0.00 | 0.00 | 0.00 | 58 | 1012.6 |
| 20260504044152 | 6 | 219 | 1.6 | 1.6 | 0.00 | 0.00 | 0.00 | 58 | 1012.8 |
| 20260504043649 | 7 | 228 | 0.0 | 0.0 | 0.00 | 0.00 | 0.00 | 59 | 1012.6 |
| 20260504043146 | 6 | 193 | 1.6 | 4.8 | 0.00 | 0.00 | 0.00 | 59 | 1012.5 |
| 20260504042644 | 6 | 176 | 0.0 | 1.6 | 0.00 | 0.00 | 0.00 | 59 | 1012.5 |
| 20260504042140 | 6 | 191 | 0.0 | 0.0 | 0.00 | 0.00 | 0.00 | 60 | 1012.4 |
| 20260504041636 | 6 | 178 | 0.0 | 1.6 | 0.00 | 0.00 | 0.00 | 59 | 1012.4 |
| 20260504041132 | 6 | 322 | 0.0 | 0.0 | 0.00 | 0.00 | 0.00 | 58 | 1012.6 |
| 20260504040630 | 6 | 310 | 0.0 | 1.6 | 0.00 | 0.00 | 0.00 | 59 | 1012.8 |
| 20260504040127 | 7 | 285 | 0.0 | 1.6 | 0.00 | 0.00 | 0.00 | 58 | 1012.4 |
| 20260504035623 | 7 | 23 | 0.0 | 1.6 | 0.00 | 0.00 | 0.00 | 58 | 1012.6 |
| 20260504035120 | 7 | 305 | 0.0 | 1.6 | 0.00 | 0.00 | 0.00 | 58 | 1012.5 |
| 20260504034618 | 7 | 280 | 0.0 | 0.0 | 0.00 | 0.00 | 0.00 | 58 | 1012.6 |
| 20260504034114 | 7 | 21 | 0.0 | 3.2 | 0.00 | 0.00 | 0.00 | 59 | 1012.5 |
| 20260504033612 | 7 | 45 | 0.0 | 1.6 | 0.00 | 0.00 | 0.00 | 59 | 1012.6 |
| 20260504033109 | 7 | 45 | 1.6 | 1.6 | 0.00 | 0.00 | 0.00 | 61 | 1012.6 |
| 20260504032606 | 7 | 22 | 0.0 | 0.0 | 0.00 | 0.00 | 0.00 | 58 | 1012.8 |
| 20260504032103 | 7 | 21 | 0.0 | 1.6 | 0.00 | 0.00 | 0.00 | 59 | 1012.8 |
| 20260504031600 | 7 | 47 | 0.0 | 0.0 | 0.00 | 0.00 | 0.00 | 60 | 1012.9 |
| 20260504031056 | 8 | 47 | 0.0 | 0.0 | 0.00 | 0.00 | 0.00 | 58 | 1013.0 |
| 20260504030553 | 8 | 47 | 0.0 | 0.0 | 0.00 | 0.00 | 0.00 | 59 | 1013.1 |
| 20260504030050 | 8 | 47 | 0.0 | 0.0 | 0.00 | 0.00 | 0.00 | 57 | 1013.0 |
| 20260504025547 | 8 | 47 | 1.6 | 1.6 | 0.00 | 0.00 | 0.00 | 55 | 1013.0 |
| 20260504025044 | 8 | 48 | 1.6 | 1.6 | 0.00 | 0.00 | 0.00 | 58 | 1012.8 |
| 20260504024541 | 9 | 47 | 0.0 | 0.0 | 0.00 | 0.00 | 0.00 | 54 | 1012.9 |
| 20260504024038 | 10 | 47 | 0.0 | 1.6 | 0.00 | 0.00 | 0.00 | 50 | 1013.0 |
| 20260504023534 | 10 | 295 | 1.6 | 1.6 | 0.00 | 0.00 | 0.00 | 49 | 1013.0 |
| 20260504023030 | 10 | 248 | 0.0 | 1.6 | 0.00 | 0.00 | 0.00 | 50 | 1012.6 |
| 20260504022526 | 10 | 212 | 3.2 | 3.2 | 0.00 | 0.00 | 0.00 | 45 | 1012.9 |
| 20260504022023 | 10 | 230 | 0.0 | 3.2 | 0.00 | 0.00 | 0.00 | 45 | 1012.8 |
| 20260504021520 | 10 | 205 | 1.6 | 1.6 | 0.00 | 0.00 | 0.00 | 47 | 1013.0 |
| 20260504021017 | 10 | 207 | 0.0 | 1.6 | 0.00 | 0.00 | 0.00 | 46 | 1013.1 |
| 20260504020514 | 10 | 226 | 3.2 | 4.8 | 0.00 | 0.00 | 0.00 | 47 | 1013.0 |
| 20260504020010 | 10 | 163 | 1.6 | 4.8 | 0.00 | 0.00 | 0.00 | 48 | 1013.0 |
| 20260504015507 | 10 | 235 | 1.6 | 3.2 | 0.00 | 0.00 | 0.00 | 45 | 1013.0 |
| 20260504015003 | 11 | 257 | 1.6 | 4.8 | 0.00 | 0.00 | 0.00 | 46 | 1013.0 |
| 20260504014459 | 11 | 303 | 3.2 | 4.8 | 0.00 | 0.00 | 0.00 | 44 | 1013.0 |
| 20260504013956 | 11 | 255 | 3.2 | 4.8 | 0.00 | 0.00 | 0.00 | 45 | 1013.0 |
| 20260504013454 | 11 | 266 | 8.0 | 16.1 | 0.00 | 0.00 | 0.00 | 43 | 1013.0 |
| 20260504012950 | 11 | 258 | 6.4 | 11.3 | 0.00 | 0.00 | 0.00 | 43 | 1012.9 |
| 20260504012448 | 11 | 221 | 4.8 | 12.9 | 0.00 | 0.00 | 0.00 | 43 | 1013.0 |
| 20260504011946 | 11 | 294 | 4.8 | 9.7 | 0.00 | 0.00 | 0.00 | 42 | 1013.0 |
| 20260504011442 | 11 | 280 | 3.2 | 4.8 | 0.00 | 0.00 | 0.00 | 42 | 1013.1 |
| 20260504010938 | 11 | 236 | 3.2 | 9.7 | 0.00 | 0.00 | 0.00 | 43 | 1012.9 |
| 20260504010434 | 11 | 270 | 1.6 | 3.2 | 0.00 | 0.00 | 0.00 | 43 | 1012.8 |
| 20260504005930 | 11 | 270 | 3.2 | 6.4 | 0.00 | 0.00 | 0.00 | 42 | 1012.5 |
| 20260504005427 | 11 | 293 | 4.8 | 9.7 | 0.00 | 0.00 | 0.00 | 41 | 1012.9 |
| 20260504004925 | 11 | 257 | 12.9 | 14.5 | 0.00 | 0.00 | 0.00 | 42 | 1012.4 |
| 20260504004422 | 11 | 257 | 14.5 | 17.7 | 0.00 | 0.00 | 0.00 | 42 | 1012.5 |
| 20260504003919 | 11 | 260 | 6.4 | 14.5 | 0.00 | 0.00 | 0.00 | 43 | 1012.6 |
| 20260504003415 | 11 | 265 | 6.4 | 11.3 | 0.00 | 0.00 | 0.00 | 43 | 1012.5 |
| 20260504002912 | 11 | 286 | 9.7 | 16.1 | 0.00 | 0.00 | 0.00 | 43 | 1012.5 |
| 20260504002409 | 11 | 253 | 4.8 | 22.5 | 0.00 | 0.00 | 0.00 | 43 | 1012.3 |
| 20260504001907 | 11 | 279 | 3.2 | 9.7 | 0.00 | 0.00 | 0.00 | 44 | 1012.3 |
| 20260504001404 | 11 | 261 | 4.8 | 6.4 | 0.00 | 0.00 | 0.00 | 43 | 1012.3 |
| 20260504000900 | 11 | 280 | 1.6 | 4.8 | 0.00 | 0.00 | 0.00 | 43 | 1012.4 |
| 20260504000357 | 11 | 266 | 3.2 | 6.4 | 0.00 | 0.00 | 0.00 | 43 | 1012.4 |
| 20260503235855 | 11 | 278 | 9.7 | 14.5 | 0.00 | 0.00 | 0.00 | 42 | 1012.4 |
| 20260503235353 | 11 | 261 | 3.2 | 9.7 | 0.00 | 0.00 | 0.00 | 42 | 1012.5 |
| 20260503234850 | 11 | 257 | 9.7 | 20.9 | 0.00 | 0.00 | 0.00 | 42 | 1012.2 |
| 20260503234348 | 11 | 266 | 11.3 | 16.1 | 0.00 | 0.00 | 0.00 | 41 | 1012.3 |
| 20260503233845 | 11 | 284 | 9.7 | 24.1 | 0.00 | 0.00 | 0.00 | 41 | 1012.1 |
| 20260503233341 | 11 | 261 | 6.4 | 12.9 | 0.00 | 0.00 | 0.00 | 41 | 1012.2 |
| 20260503232838 | 11 | 261 | 19.3 | 24.1 | 0.00 | 0.00 | 0.00 | 41 | 1012.0 |
| 20260503232335 | 11 | 266 | 6.4 | 12.9 | 0.00 | 0.00 | 0.00 | 43 | 1011.9 |
| 20260503231833 | 11 | 206 | 4.8 | 9.7 | 0.00 | 0.00 | 0.00 | 43 | 1012.1 |
| 20260503231330 | 11 | 243 | 4.8 | 12.9 | 0.00 | 0.00 | 0.00 | 43 | 1011.7 |
| 20260503230826 | 11 | 229 | 3.2 | 6.4 | 0.00 | 0.00 | 0.00 | 42 | 1011.7 |
| 20260503230323 | 12 | 227 | 9.7 | 14.5 | 0.00 | 0.00 | 0.00 | 41 | 1011.7 |
| 20260503225820 | 12 | 268 | 6.4 | 12.9 | 0.00 | 0.00 | 0.00 | 40 | 1011.9 |
| 20260503225316 | 12 | 253 | 4.8 | 11.3 | 0.00 | 0.00 | 0.00 | 40 | 1011.8 |
| 20260503224813 | 12 | 227 | 9.7 | 20.9 | 0.00 | 0.00 | 0.00 | 40 | 1011.7 |
| 20260503224310 | 12 | 239 | 9.7 | 22.5 | 0.00 | 0.00 | 0.00 | 40 | 1011.8 |
| 20260503223808 | 12 | 209 | 3.2 | 6.4 | 0.00 | 0.00 | 0.00 | 43 | 1011.7 |
| 20260503223305 | 12 | 268 | 6.4 | 9.7 | 0.00 | 0.00 | 0.00 | 40 | 1012.0 |
| 20260503222801 | 12 | 259 | 9.7 | 17.7 | 0.00 | 0.00 | 0.00 | 41 | 1011.7 |
| 20260503222259 | 12 | 252 | 9.7 | 12.9 | 0.00 | 0.00 | 0.00 | 41 | 1011.9 |
| 20260503221757 | 12 | 245 | 12.9 | 16.1 | 0.00 | 0.00 | 0.00 | 41 | 1011.9 |
| 20260503221255 | 11 | 263 | 17.7 | 25.7 | 0.00 | 0.00 | 0.00 | 41 | 1011.9 |
| 20260503220751 | 11 | 233 | 4.8 | 11.3 | 0.00 | 0.00 | 0.00 | 41 | 1012.0 |
| 20260503220248 | 11 | 286 | 4.8 | 6.4 | 0.00 | 0.00 | 0.00 | 42 | 1011.9 |
| 20260503215744 | 11 | 257 | 6.4 | 11.3 | 0.00 | 0.00 | 0.00 | 42 | 1012.1 |
| 20260503215242 | 11 | 248 | 9.7 | 17.7 | 0.00 | 0.00 | 0.00 | 40 | 1012.1 |
| 20260503214740 | 12 | 242 | 6.4 | 14.5 | 0.00 | 0.00 | 0.00 | 43 | 1011.8 |
| 20260503214236 | 11 | 248 | 4.8 | 12.9 | 0.00 | 0.00 | 0.00 | 44 | 1012.0 |
| 20260503213735 | 11 | 252 | 8.0 | 20.9 | 0.00 | 0.00 | 0.00 | 42 | 1012.0 |
| 20260503213232 | 12 | 270 | 16.1 | 22.5 | 0.00 | 0.00 | 0.00 | 42 | 1011.6 |
| 20260503212728 | 12 | 259 | 9.7 | 16.1 | 0.00 | 0.00 | 0.00 | 42 | 1012.0 |
| 20260503212226 | 12 | 238 | 9.7 | 12.9 | 0.00 | 0.00 | 0.00 | 41 | 1011.8 |
| 20260503211724 | 11 | 223 | 3.2 | 24.1 | 0.00 | 0.00 | 0.00 | 40 | 1012.0 |
| 20260503211219 | 11 | 262 | 12.9 | 16.1 | 0.00 | 0.00 | 0.00 | 42 | 1012.0 |
| 20260503210715 | 11 | 262 | 6.4 | 14.5 | 0.00 | 0.00 | 0.00 | 41 | 1011.9 |
| 20260503210213 | 11 | 300 | 8.0 | 16.1 | 0.00 | 0.00 | 0.00 | 42 | 1012.1 |
| 20260503205708 | 11 | 281 | 16.1 | 27.4 | 0.00 | 0.00 | 0.00 | 42 | 1012.1 |
| 20260503205204 | 11 | 285 | 12.9 | 20.9 | 0.00 | 0.00 | 0.00 | 42 | 1012.0 |
| 20260503204701 | 11 | 280 | 6.4 | 16.1 | 0.00 | 0.00 | 0.00 | 42 | 1012.0 |
| 20260503204159 | 11 | 288 | 8.0 | 11.3 | 0.00 | 0.00 | 0.00 | 44 | 1012.1 |
| 20260503203655 | 11 | 284 | 11.3 | 12.9 | 0.00 | 0.00 | 0.00 | 42 | 1012.1 |
| 20260503203153 | 11 | 284 | 9.7 | 17.7 | 0.00 | 0.00 | 0.00 | 43 | 1012.3 |
| 20260503202650 | 11 | 259 | 11.3 | 20.9 | 0.00 | 0.00 | 0.00 | 43 | 1012.2 |
| 20260503202148 | 11 | 297 | 9.7 | 24.1 | 0.00 | 0.00 | 0.00 | 44 | 1012.2 |
| 20260503201646 | 11 | 295 | 6.4 | 12.9 | 0.00 | 0.00 | 0.00 | 46 | 1012.4 |
| 20260503201143 | 10 | 284 | 12.9 | 22.5 | 0.00 | 0.00 | 0.00 | 45 | 1012.4 |
| 20260503200639 | 10 | 250 | 19.3 | 22.5 | 0.00 | 0.00 | 0.00 | 44 | 1012.4 |
| 20260503200135 | 10 | 253 | 8.0 | 12.9 | 0.00 | 0.00 | 0.00 | 46 | 1012.6 |
| 20260503195633 | 10 | 263 | 16.1 | 20.9 | 0.00 | 0.00 | 0.00 | 44 | 1012.6 |
| 20260503195129 | 10 | 289 | 12.9 | 25.7 | 0.00 | 0.00 | 0.00 | 44 | 1012.8 |
| 20260503194627 | 10 | 290 | 12.9 | 16.1 | 0.00 | 0.00 | 0.00 | 44 | 1012.9 |
| 20260503194121 | 10 | 282 | 24.1 | 29.0 | 0.00 | 0.00 | 0.00 | 44 | 1012.9 |
| 20260503193619 | 10 | 292 | 6.4 | 11.3 | 0.00 | 0.00 | 0.00 | 44 | 1013.1 |
| 20260503193114 | 10 | 272 | 6.4 | 14.5 | 0.00 | 0.00 | 0.00 | 44 | 1013.0 |
| 20260503192610 | 11 | 293 | 8.0 | 16.1 | 0.00 | 0.00 | 0.00 | 41 | 1013.0 |
| 20260503192106 | 11 | 265 | 12.9 | 30.6 | 0.00 | 0.00 | 0.00 | 41 | 1012.8 |
| 20260503191603 | 10 | 327 | 8.0 | 24.1 | 0.00 | 0.00 | 0.00 | 43 | 1012.9 |
| 20260503191100 | 10 | 263 | 17.7 | 30.6 | 0.00 | 0.00 | 0.00 | 43 | 1013.0 |
| 20260503190556 | 10 | 273 | 24.1 | 30.6 | 0.00 | 0.00 | 0.00 | 41 | 1012.9 |
| 20260503190054 | 10 | 326 | 9.7 | 12.9 | 0.00 | 0.00 | 0.00 | 42 | 1012.9 |
| 20260503185550 | 10 | 340 | 11.3 | 22.5 | 0.00 | 0.00 | 0.00 | 41 | 1013.1 |
| 20260503185050 | 10 | 305 | 9.7 | 12.9 | 0.00 | 0.00 | 0.00 | 42 | 1013.1 |
| 20260503184546 | 11 | 274 | 8.0 | 20.9 | 0.00 | 0.00 | 0.00 | 41 | 1013.0 |
| 20260503184043 | 11 | 253 | 8.0 | 11.3 | 0.00 | 0.00 | 0.00 | 39 | 1012.9 |
| 20260503183539 | 11 | 266 | 14.5 | 22.5 | 0.00 | 0.00 | 0.00 | 40 | 1013.0 |
| 20260503183037 | 10 | 264 | 9.7 | 17.7 | 0.00 | 0.00 | 0.00 | 40 | 1013.2 |
| 20260503182536 | 10 | 276 | 20.9 | 25.7 | 0.00 | 0.00 | 0.00 | 40 | 1013.0 |
| 20260503182033 | 11 | 254 | 16.1 | 17.7 | 0.00 | 0.00 | 0.00 | 39 | 1013.2 |
| 20260503181530 | 11 | 307 | 8.0 | 16.1 | 0.00 | 0.00 | 0.00 | 38 | 1013.1 |
| 20260503181026 | 11 | 216 | 14.5 | 16.1 | 0.00 | 0.00 | 0.00 | 42 | 1013.2 |
| 20260503180523 | 11 | 217 | 9.7 | 24.1 | 0.00 | 0.00 | 0.00 | 40 | 1013.3 |
| 20260503180020 | 11 | 255 | 11.3 | 22.5 | 0.00 | 0.00 | 0.00 | 39 | 1013.4 |
| 20260503175518 | 10 | 222 | 4.8 | 22.5 | 0.00 | 0.00 | 0.00 | 43 | 1013.1 |
| 20260503175015 | 10 | 263 | 9.7 | 14.5 | 0.00 | 0.00 | 0.00 | 45 | 1013.5 |
| 20260503174512 | 10 | 254 | 17.7 | 24.1 | 0.00 | 0.00 | 0.00 | 40 | 1013.5 |
| 20260503174008 | 11 | 249 | 14.5 | 25.7 | 0.00 | 0.00 | 0.00 | 40 | 1013.6 |
| 20260503173503 | 11 | 235 | 14.5 | 20.9 | 0.00 | 0.00 | 0.00 | 37 | 1013.5 |
| 20260503173000 | 10 | 227 | 14.5 | 17.7 | 0.00 | 0.00 | 0.00 | 40 | 1013.6 |
| 20260503172458 | 10 | 268 | 17.7 | 24.1 | 0.00 | 0.00 | 0.00 | 43 | 1013.7 |
| 20260503171954 | 10 | 262 | 17.7 | 24.1 | 0.00 | 0.00 | 0.00 | 39 | 1013.8 |
| 20260503171451 | 10 | 266 | 19.3 | 22.5 | 0.00 | 0.00 | 0.00 | 41 | 1013.7 |
| 20260503170948 | 10 | 336 | 6.4 | 17.7 | 0.00 | 0.00 | 0.00 | 41 | 1013.7 |
| 20260503170444 | 10 | 286 | 17.7 | 33.8 | 0.00 | 0.00 | 0.00 | 40 | 1013.9 |
| 20260503150837 | 7 | 242 | 9.7 | 17.7 | 0.00 | 0.00 | 0.00 | 44 | 1015.3 |
| 20260503150333 | 6 | 273 | 6.4 | 16.1 | 0.00 | 0.00 | 0.00 | 45 | 1015.2 |
| 20260503140257 | 6 | 240 | 19.3 | 27.4 | 0.00 | 0.00 | 0.00 | 47 | 1015.3 |
| 20260503131227 | 5 | 282 | 6.4 | 9.7 | 0.00 | 0.00 | 0.00 | 55 | 1015.4 |
| 20260503130724 | 5 | 305 | 3.2 | 12.9 | 0.00 | 0.00 | 0.00 | 54 | 1015.4 |
| 20260503130221 | 5 | 259 | 9.7 | 14.5 | 0.00 | 0.00 | 0.00 | 56 | 1015.3 |
| 20260503120147 | 3 | 251 | 8.0 | 16.1 | 0.00 | 0.00 | 0.00 | 67 | 1015.2 |
| 20260503110615 | 1 | 263 | 3.2 | 4.8 | 0.00 | 0.00 | 0.00 | 79 | 1015.2 |
| 20260503110112 | 1 | 257 | 1.6 | 3.2 | 0.00 | 0.00 | 0.00 | 81 | 1015.2 |
| 20260503090502 | 1 | 274 | 6.4 | 11.3 | 0.00 | 0.00 | 0.00 | 77 | 1014.4 |
| 20260503081428 | 1 | 255 | 3.2 | 9.7 | 0.00 | 0.00 | 0.00 | 77 | 1014.3 |
| 20260503080925 | 1 | 257 | 3.2 | 3.2 | 0.00 | 0.00 | 0.00 | 77 | 1014.5 |
| 20260503080422 | 2 | 260 | 3.2 | 6.4 | 0.00 | 0.00 | 0.00 | 77 | 1014.5 |
| 20260503072858 | 2 | 265 | 3.2 | 6.4 | 0.00 | 0.00 | 0.00 | 77 | 1014.4 |
| 20260503072355 | 1 | 268 | 3.2 | 4.8 | 0.00 | 0.00 | 0.00 | 77 | 1014.4 |
| 20260503071851 | 1 | 272 | 1.6 | 4.8 | 0.00 | 0.00 | 0.00 | 77 | 1014.5 |
| 20260503071349 | 2 | 292 | 3.2 | 6.4 | 0.00 | 0.00 | 0.00 | 77 | 1014.3 |
| 20260503070845 | 2 | 260 | 1.6 | 3.2 | 0.00 | 0.00 | 0.00 | 76 | 1014.4 |
| 20260503070343 | 2 | 270 | 4.8 | 4.8 | 0.00 | 0.00 | 0.00 | 77 | 1014.3 |
| 20260503060314 | 1 | 269 | 1.6 | 3.2 | 0.00 | 0.00 | 0.00 | 78 | 1014.6 |
| 20260503054801 | 1 | 274 | 3.2 | 3.2 | 0.00 | 0.00 | 0.00 | 78 | 1014.7 |
| 20260503054258 | 1 | 268 | 4.8 | 4.8 | 0.00 | 0.00 | 0.00 | 79 | 1014.9 |
| 20260503053755 | 1 | 247 | 1.6 | 3.2 | 0.00 | 0.00 | 0.00 | 79 | 1014.8 |
| 20260503053254 | 1 | 260 | 1.6 | 1.6 | 0.00 | 0.00 | 0.00 | 79 | 1014.9 |